Orbital Elements at Epoch 2459200.5 (2020-Dec-17.0) TDB
Reference: JPL 34 (heliocentric ecliptic J2000)
Element | Value | Uncertainty (1-sigma) | Units |
e | .1898415782926676 | 1.0925e-08 | |
a | 2.164945730195872 | 5.3791e-09 | au |
q | 1.753949015857516 | 2.3807e-08 | au |
i | 2.831617257607249 | 6.8136e-07 | deg |
node | 272.489577049011 | 1.5077e-05 | deg |
peri | 359.1622464826544 | 1.55e-05 | deg |
M | 263.670520794107 | 4.9173e-06 | deg |
tp | 2459511.833360672949 (2021-Oct-24.33336067) | 1.6296e-05 | TDB |
period | 1163.506859646816 3.19 | 4.3364e-06 1.187e-08 | d yr |
n | .3094094349467596 | 1.1532e-09 | deg/d |
Q | 2.575942444534228 | 6.4003e-09 | au |
|
| | Orbit Determination Parameters
Additional Information
|